Weather History for KACY - October, 2011

Change the Weather History Date:

Saturday, October 29, 2011

  Actual Average Record
Temperature  
Mean Temperature 42 °F 52 °F  
Max Temperature 48 °F 63 °F 80 °F (1984)
Min Temperature 35 °F 42 °F 26 °F (1985)
Degree Days  
Heating Degree Days 23 13  
Month to date heating degree days 187 269  
Since 1 July heating degree days 215 331  
Cooling Degree Days 0 0  
Month to date cooling degree days 15 16  
Year to date cooling degree days 1465 1050  
Moisture  
Dew Point 39 °F    
Average Humidity 85    
Maximum Humidity 93    
Minimum Humidity 76    
Precipitation  
Precipitation 1.43 in 0.11 in 4.79 in (2012)
Month to date precipitation 3.00 3.18  
Year to date precipitation 40.36 34.55  
Snow  
Snow T in 0.00 in T in (2011)
Month to date snowfall T 0.0  
Since 1 July snowfall T 0.0  
Since 1 September snowfall T 0.0  
Snow Depth 0.00 in    
Sea Level Pressure  
Sea Level Pressure 29.93 in    
Wind  
Wind Speed 17 mph (NNE)    
Max Wind Speed 26 mph    
Max Gust Speed 36 mph    
Visibility 6 miles    
Events Rain , Snow    
T = Trace of Precipitation, MM = Missing Value Source: NWS Daily Summary

Daily Weather History Graph

Daily Weather History Graph

Search for Another Location

Airport or City:

Trip Planner

Search our weather history database for the weather conditions in past years. The results will help you decide how hot, cold, wet, or windy it might be!

Date:

Astronomy

Oct. 29, 2011 Rise Set
Actual Time 7:22 AM EDT 6:00 PM EDT
Civil Twilight 6:55 AM EDT 6:28 PM EDT
Nautical Twilight 6:23 AM EDT 6:59 PM EDT
Astronomical Twilight 5:52 AM EDT 7:31 PM EDT
Moon 10:41 AM EDT (10/29) 8:22 PM EDT (10/29)
Length of Visible Light 11h 33m
Length of Day
10h 37m
Waxing Crescent, 11% of the Moon is Illuminated
Oct 29
Waxing Crescent
Nov 2
First Quarter
Nov 10
Full
Nov 18
Last Quarter
Nov 25
New

Hourly Weather History & Observations

Time (EDT) Temp. Windchill Dew Point Humidity Pressure Visibility Wind Dir Wind Speed Gust Speed Precip Events Conditions
12:54 AM 44.1 °F 40.8 °F 37.9 °F 79% 30.21 in 10.0 mi NE 5.8 mph - 0.01 in Rain Light Rain
1:54 AM 43.0 °F 38.2 °F 39.0 °F 86% 30.17 in 10.0 mi NNE 8.1 mph - 0.01 in Rain Light Rain
2:54 AM 43.0 °F 37.2 °F 39.0 °F 86% 30.15 in 10.0 mi NNE 10.4 mph - 0.01 in Rain Light Rain
3:54 AM 43.0 °F 37.2 °F 39.9 °F 89% 30.15 in 10.0 mi NE 10.4 mph - 0.04 in Rain Light Rain
4:54 AM 44.1 °F 37.7 °F 39.9 °F 85% 30.11 in 10.0 mi NE 12.7 mph - 0.02 in Rain Light Rain
5:15 AM 44.6 °F 37.8 °F 39.2 °F 81% 30.10 in 8.0 mi NE 15.0 mph 20.7 mph 0.02 in Rain Light Rain
5:45 AM 44.6 °F 37.8 °F 41.0 °F 87% 30.08 in 10.0 mi NE 15.0 mph 24.2 mph 0.02 in Rain Light Rain
5:54 AM 44.1 °F 38.1 °F 41.0 °F 89% 30.08 in 10.0 mi NE 11.5 mph - 0.03 in Rain Light Rain
6:04 AM 44.6 °F 37.8 °F 41.0 °F 87% 30.06 in 10.0 mi NE 15.0 mph - 0.00 in   Overcast
6:54 AM 45.0 °F 39.3 °F 42.1 °F 90% 30.07 in 9.0 mi NNE 11.5 mph - 0.01 in Rain Light Rain
7:54 AM 45.0 °F 39.3 °F 42.1 °F 90% 30.06 in 6.0 mi NE 11.5 mph - 0.14 in Rain Rain
8:27 AM 44.6 °F 38.1 °F 42.8 °F 93% 30.02 in 6.0 mi NE 13.8 mph 23.0 mph 0.07 in Rain Rain
8:54 AM 45.0 °F 37.9 °F 42.1 °F 90% 30.00 in 6.0 mi NE 16.1 mph 21.9 mph 0.12 in Rain Light Rain
10:01 AM 46.4 °F 40.1 °F 44.6 °F 93% 29.95 in 5.0 mi NE 15.0 mph 23.0 mph 0.01 in Rain Rain
10:43 AM 46.4 °F 38.7 °F 44.6 °F 93% 29.91 in 2.0 mi ENE 20.7 mph 29.9 mph 0.05 in Rain Rain
10:54 AM 46.9 °F - 44.1 °F 90% 29.90 in 4.0 mi NE 23.0 mph 32.2 mph 0.09 in Rain Rain
11:13 AM 48.2 °F - 44.6 °F 87% 29.88 in 2.5 mi ENE 19.6 mph 35.7 mph 0.04 in Rain Rain
11:31 AM 48.2 °F - 44.6 °F 87% 29.88 in 2.5 mi NE 18.4 mph 27.6 mph 0.09 in Rain Rain
11:54 AM 48.0 °F - 45.0 °F 89% 29.88 in 1.5 mi NNE 19.6 mph 29.9 mph 0.19 in Rain Heavy Rain
12:30 PM 48.2 °F - 44.6 °F 87% 29.85 in 2.5 mi NE 20.7 mph 31.1 mph 0.18 in Rain Heavy Rain
12:54 PM 46.9 °F - 44.1 °F 90% 29.81 in 4.0 mi NE 23.0 mph 33.4 mph 0.27 in Rain Light Rain
1:26 PM 44.6 °F 37.2 °F 41.0 °F 87% 29.81 in 2.0 mi NNE 17.3 mph 32.2 mph 0.07 in Rain Heavy Rain
1:54 PM 42.1 °F 34.2 °F 39.0 °F 89% 29.78 in 3.0 mi NNE 16.1 mph 23.0 mph 0.17 in Rain Rain
2:54 PM 42.1 °F 33.6 °F 39.0 °F 89% 29.73 in 8.0 mi NNE 18.4 mph 29.9 mph 0.04 in Rain Light Rain
3:54 PM 39.9 °F 31.1 °F 37.0 °F 89% 29.74 in 10.0 mi North 17.3 mph 27.6 mph 0.01 in   Overcast
4:27 PM 39.2 °F 29.0 °F 37.4 °F 93% 29.76 in 1.8 mi North 21.9 mph 27.6 mph 0.02 in Rain Heavy Rain
4:37 PM 39.2 °F 29.8 °F 37.4 °F 93% 29.77 in 3.0 mi North 18.4 mph 25.3 mph 0.04 in Rain Light Rain
4:54 PM 39.0 °F 29.9 °F 36.0 °F 89% 29.80 in 5.0 mi NNW 17.3 mph 25.3 mph 0.05 in Rain Light Rain
5:21 PM 39.2 °F 29.3 °F 35.6 °F 87% 29.79 in 10.0 mi NNW 20.7 mph 26.5 mph 0.01 in Rain Light Rain
5:54 PM 37.9 °F 27.9 °F 35.1 °F 89% 29.80 in 10.0 mi North 19.6 mph - 0.01 in   Overcast
6:54 PM 35.1 °F 23.8 °F 33.1 °F 92% 29.83 in 4.0 mi NNW 20.7 mph 31.1 mph 0.01 in Rain Light Rain
7:54 PM 36.0 °F 24.7 °F 34.0 °F 93% 29.85 in 5.0 mi NNW 21.9 mph 29.9 mph 0.03 in Snow Light Snow
8:12 PM 35.6 °F 25.2 °F 32.0 °F 87% 29.87 in 2.5 mi NNW 18.4 mph 27.6 mph 0.03 in Snow Light Snow
8:27 PM 35.6 °F 25.9 °F 32.0 °F 87% 29.87 in 4.0 mi NNW 16.1 mph 23.0 mph 0.05 in Snow Light Snow
8:54 PM 35.1 °F 25.2 °F 33.1 °F 92% 29.89 in 7.0 mi NW 16.1 mph - 0.07 in Snow Light Snow
9:54 PM 36.0 °F 27.1 °F 34.0 °F 93% 29.91 in 8.0 mi NNW 13.8 mph 24.2 mph 0.01 in   Overcast
10:54 PM 36.0 °F 25.3 °F 33.1 °F 89% 29.94 in 5.0 mi NW 19.6 mph 25.3 mph 0.00 in Snow Light Snow
11:54 PM 36.0 °F 25.6 °F 34.0 °F 93% 29.95 in 10.0 mi NNW 18.4 mph 25.3 mph 0.00 in   Overcast